This is the latest recevied weather packets stored in our database for station/object W1MDM-10. If no packets are shown the sender has not sent any weather packets the latest 10 day(s).
| Time | Temp. | Humidity | Pressure | Rain* | Wind** | Luminosity | Snow |
|---|---|---|---|---|---|---|---|
| 1788112541 | 33.33° C | 61% | 1015.8 hPa | 0 mm | - | - | - |
| 1788112241 | 33.33° C | 62% | 1015.8 hPa | 0 mm | - | - | - |
| 1788111941 | 33.33° C | 63% | 1015.9 hPa | 0 mm | - | - | - |
| 1788111641 | 32.78° C | 63% | 1015.9 hPa | 0 mm | - | - | - |
| 1788111341 | 32.78° C | 63% | 1016 hPa | 0 mm | - | - | - |
| 1788111041 | 32.78° C | 61% | 1016 hPa | 0 mm | - | - | - |
| 1788110741 | 33.33° C | 61% | 1016 hPa | 0 mm | - | - | - |
| 1788110441 | 33.33° C | 62% | 1016.2 hPa | 0 mm | - | - | - |
| 1788110141 | 33.33° C | 63% | 1016.2 hPa | 0 mm | - | - | - |
| 1788109841 | 32.78° C | 64% | 1016.3 hPa | 0 mm | - | - | - |
| 1788109541 | 32.78° C | 62% | 1016.2 hPa | 0 mm | - | - | - |
| 1788109241 | 32.78° C | 65% | 1016.3 hPa | 0 mm | - | - | - |
| 1788108941 | 32.22° C | 65% | 1016.4 hPa | 0 mm | - | - | - |
| 1788108641 | 32.22° C | 65% | 1016.4 hPa | 0 mm | - | - | - |
| 1788108341 | 32.22° C | 66% | 1016.4 hPa | 0 mm | - | - | - |
| 1788108041 | 31.67° C | 66% | 1016.5 hPa | 0 mm | - | - | - |
| 1788107741 | 31.67° C | 65% | 1016.5 hPa | 0 mm | - | - | - |
| 1788107441 | 31.67° C | 68% | 1016.4 hPa | 0 mm | - | - | - |
| 1788107141 | 31.67° C | 66% | 1016.5 hPa | 0 mm | - | - | - |
| 1788106841 | 31.67° C | 66% | 1016.5 hPa | 0 mm | - | - | - |
| 1788106541 | 31.67° C | 69% | 1016.5 hPa | 0 mm | - | - | - |
| 1788106241 | 31.67° C | 70% | 1016.4 hPa | 0 mm | - | - | - |
| 1788105941 | 31.11° C | 69% | 1016.4 hPa | 0 mm | - | - | - |
| 1788105641 | 31.11° C | 71% | 1016.4 hPa | 0 mm | - | - | - |
| 1788105341 | 31.11° C | 70% | 1016.5 hPa | 0 mm | - | - | - |
* Rain latest hour (hover to see other rain measurements)
** Current wind speed in m/s (hover to see current wind gust speed)